Regional Weather Roundup
Issued by NWS

Home | Current Version | Previous Version | Graphics & Text | Print | Product List | Glossary On
Versions: 1 2 3 4 5 6 7 8 9 10 11 12 13 14 15 16 17 18 19 20 21 22 23 24 25 26 27 28 29 30 31 32 33 34 35 36 37 38 39 40 41 42 43 44 45 46 47 48 49 50
000
ASUS43 KOAX 022210
RWRNE

WEATHER ROUNDUP FOR NEBRASKA
NATIONAL WEATHER SERVICE OMAHA NE
400 PM CST MON MAR 02 2015

NOTES: SATELLITE DATA IS BEING USED TO AUGMENT CLOUD COVER ABOVE
       12000 FEET.
       "FAIR" INDICATES FEW OR NO CLOUDS BELOW 12,000 FEET WITH NO
       SIGNIFICANT WEATHER AND/OR OBSTRUCTIONS TO VISIBILITY.

  * THESE STATIONS DO NOT REPORT WEATHER SUCH AS RAIN...SNOW OR FOG.

NEZ001>004-019>022-054>056-022300-
NEBRASKA PANHANDLE

CITY           SKY/WX    TMP DP  RH WIND       PRES   REMARKS
SCOTTSBLUFF    MOSUNNY   46  24  42 SE14      29.72F
ALLIANCE       PTSUNNY   38  23  55 S20       29.76F WCI  28
CHADRON        CLOUDY    44  26  49 S6        29.74F
KIMBALL        SUNNY     43  26  50 S15G21    29.70F
SIDNEY         MOSUNNY   35  24  64 S18G25    29.77F WCI  24
$$

NEZ057>060-069>072-079>082-022300-
SOUTHWEST NEBRASKA

CITY           SKY/WX    TMP DP  RH WIND       PRES   REMARKS
NORTH PLATTE   PTSUNNY   37  20  50 S25G33    29.91F WCI  25
IMPERIAL         N/A     31  21  66 S21       29.88F WCI  18
LEXINGTON      PTSUNNY   38  19  45 S23G30    29.97F WCI  28
MCCOOK         CLOUDY    36  21  54 S18G29    29.96F WCI  26
OGALLALA       CLOUDY    33  23  67 S15       29.86F WCI  22
$$

NEZ005>010-023>029-035>040-094-022300-
NORTH CENTRAL NEBRASKA

CITY           SKY/WX    TMP DP  RH WIND       PRES   REMARKS
VALENTINE      PTSUNNY   40  16  37 S24G36    29.86F WCI  29
AINSWORTH      PTSUNNY   42  13  31 S23G32    29.89F
BROKEN BOW     PTSUNNY   39  18  42 S28G36    29.95F WCI  28
O`NEILL        CLOUDY    40  17  38 S22G33    29.97F WCI  30
ORD            CLOUDY    39  14  36 S25G33    29.99F WCI  28
THEDFORD       MOSUNNY   41  20  43 S22G31    29.89F
$$

NEZ041-046>049-061>064-073>077-083>087-022300-
SOUTH CENTRAL NEBRASKA

CITY           SKY/WX    TMP DP  RH WIND       PRES   REMARKS
GRAND ISLAND   PTSUNNY   40  16  37 S25G36    30.06F WCI  29
AURORA         MOSUNNY   41  16  36 S20G26    30.07F
HASTINGS       MOSUNNY   39  14  36 S21G33    30.05F WCI  29
HEBRON         MOSUNNY   38  16  40 S17G23    30.12F WCI  29
HOLDREGE       PTSUNNY   36  17  44 S25G36    30.01F WCI  24
KEARNEY *      PTSUNNY   37  14  38 S26G39    30.02F WCI  26
YORK           MOSUNNY   39  18  41 S18G30    30.09F WCI  30
$$

NEZ011>018-030>034-042>045-022300-
NORTHEAST NEBRASKA

CITY           SKY/WX    TMP DP  RH WIND       PRES   REMARKS
NORFOLK        CLOUDY    40  18  41 S16G32    30.07F WCI  31
ALBION         CLOUDY    39  14  35 S22G30    30.05F WCI  29
BLAIR          CLOUDY    40  21  46 SE17G24   30.16F WCI  32
COLUMBUS *     CLOUDY    39  16  38 S17G28    30.12F WCI  30
FREMONT        CLOUDY    42  20  41 SE16G30   30.15F
TEKAMAH        CLOUDY    40  21  46 SE15      30.17F WCI  32
WAYNE          CLOUDY    40  21  45 S22G28    30.11F WCI  31
$$

NEZ050>053-065>068-078-088>093-022300-
SOUTHEAST NEBRASKA

CITY           SKY/WX    TMP DP  RH WIND       PRES   REMARKS
LINCOLN        SUNNY     42  18  37 S22G29    30.16F
OMAHA EPPLEY   CLOUDY    41  20  43 SE20      30.18F
BEATRICE       MOSUNNY   40  19  41 S14G24    30.15F WCI  33
FALLS CITY     PTSUNNY   41  18  39 SE14      30.21F
NEBRASKA CITY  SUNNY     41  12  31 S17G25    30.19F
PLATTSMOUTH    MOSUNNY   40  17  39 SE15G23   30.18F WCI  32
$$

NEZ044-045-051>053-067-022300-
OMAHA AREA

CITY           SKY/WX    TMP DP  RH WIND       PRES   REMARKS
OMAHA EPPLEY   CLOUDY    41  20  43 SE20      30.18F
BLAIR          CLOUDY    40  21  46 SE17G24   30.16F WCI  32
FREMONT        CLOUDY    42  20  41 SE16G30   30.15F
MILLARD        CLOUDY    41  21  44 S16G23    30.17F
OFFUTT AFB     CLOUDY    40  20  43 S15G23    30.18F WCI  32
PLATTSMOUTH    MOSUNNY   40  17  39 SE15G23   30.18F WCI  32
WAHOO          MOCLDY    42  15  34 S20G29    30.15F
$$


USA.gov is the U.S. government's official web portal to all federal, state and local government web resources and services.